Regional Weather Roundup
Issued by NWS

Home | Current Version | Previous Version | Graphics & Text | Print | Product List | Glossary On
Versions: 1 2 3 4 5 6 7 8 9 10 11 12 13 14 15 16 17 18 19 20 21 22 23 24 25 26 27 28 29 30 31 32 33 34 35 36 37 38 39 40 41 42 43 44 45 46 47 48 49 50
000
ASUS45 KSLC 302110
RWRUT

UTAH REGIONAL WEATHER ROUNDUP
NATIONAL WEATHER SERVICE SALT LAKE CITY UT
300 PM MDT SAT AUG 30 2014

UTZ001>011-023>025-302200-

NORTHERN UTAH

CITY           SKY/WX    TMP DP  RH WIND       PRES   REMARKS
HILL AFB       MOSUNNY   80  41  24 S13       29.95F
LOGAN          SUNNY     80  44  27 S12G22    29.91F
OGDEN          MOSUNNY   82  40  22 SE10      29.92F
PROVO AIRPORT  PTSUNNY   79  45  29 SE8       29.95F
SALT LAKE CITY PTSUNNY   80  40  23 E14       29.90F
VERNAL         CLOUDY    73  49  42 SE6       30.01F
WENDOVER       PTSUNNY   88  34  14 SE12      29.88F
HEBER CITY     CLOUDY    70  43  37 E7        30.05F
WEST JORDAN    SUNNY     82  48  30 E8        29.94F

$$

UTZ012>022-026-027-302200-

SOUTHERN UTAH

CITY           SKY/WX    TMP DP  RH WIND       PRES   REMARKS
BRYCE CANYON   CLOUDY    75  37  25 S10       30.23F
CEDAR CITY     CLOUDY    85  29  13 S16G29    30.05F
MILFORD        MOSUNNY   91  30  11 SW31G37   29.96F
MOAB/CYNLANDS  SUNNY     89  39  17 NW7       29.95F
PRICE          CLOUDY    76  39  26 E3        30.07F
ST GEORGE      CLOUDY    93  41  16 NW6       29.87F

$$

REGIONAL REPORTS     COLORADO/ARIZONA

CITY           SKY/WX    TMP DP  RH WIND       PRES   REMARKS
CRAIG, CO      TSTM      69  47  45 SW10G32   30.06R
GRAND JUNCTION CLOUDY    81  47  30 NW7       29.99F
RIFLE          CLOUDY    79  44  28 W13G20    30.04F
MONTROSE       PTSUNNY   84  43  23 N3        30.08F
CORTEZ         SUNNY     88  36  15 S13       30.13F
PAGE, AZ       PTSUNNY   90  36  14 N3        29.98F
GRAND CANYON   MOSUNNY   82  32  16 SW14G24   30.20F
KINGMAN        SUNNY     98  34  10 SW17G25   29.95F HX  92
FLAGSTAFF      SUNNY     78  36  21 W8G18     30.25F

$$

REGIONAL REPORTS    NEVADA/IDAHO/WYOMING

CITY           SKY/WX    TMP DP  RH WIND       PRES   REMARKS
LAS VEGAS, NV  PTSUNNY  104  27   6 S14G24    29.75F HX  97
ELY            MOSUNNY   83  28  13 SW18G25   30.03F
ELKO           MOSUNNY   82  33  17 W17G26    29.97F
POCATELLO, ID  MOSUNNY   72  44  36 W18       29.95F
BURLEY         MOSUNNY   72  44  36 W9        29.92F
EVANSTON, WY   PTSUNNY   65  44  46 SW15G25   30.14F
ROCK SPRINGS   LGT RAIN  61  45  55 S13       30.10R

$$


USA.gov is the U.S. government's official web portal to all federal, state and local government web resources and services.